Home > Weather > Brno > Past weeks

Flag for Czech Republic Past Weather in Brno, Czech Republic — Yesterday and Last 2 Weeks

Now
72 °F

Passing clouds.


Feels Like: 74 °F
Forecast: 61 / 85 °F
Wind: 2 mph from Northeast

Location: Brno / Turany

Current Time: Jul 2, 2016 at 12:35:05 AM

Latest Report: Jul 1, 2016 at 11:00 PM


Visibility: 19 mi

Pressure: 30.01 "Hg

Humidity: 73%

Dew Point: 63 °F

Location of BrnoLocation

Past Weather in Brno — Graph

°F

Brno Temperature Yesterday

Maximum temperature yesterday: 84 °F (at 5:00 PM)
Minimum temperature yesterday: 63 °F (at 6:00 AM)
Average temperature yesterday: 74 °F

High & Low Weather Summary for the Past Weeks

 TemperatureHumidityPressure
High91 °F (Jun 25, 4:00 PM)99% (Jun 21, 7:00 AM)30.28 "Hg (Jun 21, 7:00 AM)
Low51 °F (Jun 18, 5:00 AM)36% (Jun 18, 6:00 PM)29.47 "Hg (Jun 17, 4:00 AM)
Average70 °F69%30.02 "Hg
* Reported Jun 16 11:00 PM — Jul 1 11:00 PM, Brno, Weather by CustomWeather, © 2016

Note: Actual official high and low records may vary slightly from our data, if they occured in-between our weather recording intervals... More about our weather records

Advertising

Brno Weather History for the Previous 24 Hours

Scroll right to see more
 ConditionsComfort  
Time TempWeatherWind HumidityBarometerVisibility
11:00 PM
Fri, Jul 1
72 °FPassing clouds.2 mph73%30.01 "Hg19 mi
10:00 PM76 °FPassing clouds.2 mph65%30.00 "Hg22 mi
9:00 PM77 °FPassing clouds.1 mph64%29.98 "Hg28 mi
8:00 PM81 °FPassing clouds.2 mph54%29.97 "Hg19 mi
7:00 PM83 °FPassing clouds.3 mph48%29.96 "Hg31 mi
6:00 PM82 °FScattered clouds.2 mph50%29.97 "Hg31 mi
5:00 PM84 °FScattered clouds.3 mph48%29.97 "Hg28 mi
4:00 PM83 °FPartly sunny.2 mph47%29.98 "Hg25 mi
3:00 PM80 °FPartly sunny.3 mph55%30.00 "Hg25 mi
2:00 PM82 °FScattered clouds.2 mph53%30.01 "Hg22 mi
1:00 PM79 °FScattered clouds.2 mph57%30.03 "Hg22 mi
12:00 PM79 °FScattered clouds.2 mph60%30.03 "Hg22 mi
11:00 AM77 °FPartly sunny.1 mph59%30.05 "Hg16 mi
10:00 AM74 °FPartly sunny.2 mph70%30.06 "Hg16 mi
9:00 AM71 °FPartly sunny.1 mph82%30.05 "Hg11 mi
8:00 AM65 °FFog.2 mph96%30.06 "Hg6 mi
7:00 AM63 °FFog.2 mph99%30.05 "Hg1 mi
6:00 AM63 °FFog.1 mph99%30.04 "Hg1 mi
5:00 AM64 °FFog.1 mph97%30.03 "Hg5 mi
4:00 AM65 °FPassing clouds.2 mph94%30.02 "Hg6 mi
3:00 AM65 °FPassing clouds.1 mph96%30.02 "Hg19 mi
2:00 AM66 °FPassing clouds.1 mph94%30.01 "Hg19 mi
1:00 AM67 °FPassing clouds.2 mph94%30.00 "Hg19 mi
12:00 AM68 °FLight rain. Overcast.2 mph93%30.01 "Hg6 mi
Weather by CustomWeather, © 2016

See weather overviewHow to use our weather pages